Regional Weather Roundup
Issued by NWS

Home | Current Version | Previous Version | Graphics & Text | Print | Product List | Glossary Off
Versions: 1 2 3 4 5 6 7 8 9 10 11 12 13 14 15 16 17 18 19 20 21 22 23 24 25 26 27 28 29 30 31 32 33 34 35 36 37 38 39 40 41 42 43 44 45 46 47 48 49 50

000
ASUS43 KFSD 220110
RWRSD

WEATHER ROUNDUP FOR SOUTH DAKOTA
NATIONAL WEATHER SERVICE SIOUX FALLS SD
700 PM CST SAT JAN 21 2017

NOTE: "FAIR" INDICATES FEW OR NO CLOUDS BELOW 12,000 FEET WITH NO
SIGNIFICANT WEATHER AND/OR OBSTRUCTIONS TO VISIBILITY.


SDZ001>005-009-010-012>017-220200-
NORTHWEST AND NORTH CENTRAL SOUTH DAKOTA

CITY           SKY/WX    TMP DP  RH WIND       PRES   REMARKS
BUFFALO          N/A     30  25  81 W5        29.47R WCI  25
FAITH            N/A     25  23  92 NW12      29.51R WCI  14
MOBRIDGE       CLOUDY    24  20  84 CALM      29.49R
$$

SDZ012>016-024>037-041>051-057-063-072>074-220200-
SOUTHWEST AND SOUTH CENTRAL SOUTH DAKOTA

CITY           SKY/WX    TMP DP  RH WIND       PRES   REMARKS
RAPID CTY ARPT CLEAR     28  24  85 W6        29.54R WCI  22
PIERRE         CLEAR     22  20  92 CALM      29.50R
CUSTER         CLOUDY    30  25  81 CALM      29.50R
ELLSWORTH AFB  CLEAR     30  27  86 N8        29.53R WCI  23
PHILIP         CLEAR     31  28  89 W7        29.53R WCI  24
PINE RIDGE     CLEAR     27  25  92 CALM      29.53R
SPEARFISH      FAIR      30  25  80 S12       29.54R WCI  21
WINNER         FAIR      32  29  88 W7        29.51R WCI  26
$$

SDZ004>011-016>023-039-040-220200-
NORTHEAST SOUTH DAKOTA

CITY           SKY/WX    TMP DP  RH WIND       PRES   REMARKS
ABERDEEN       CLOUDY    32  27  81 SW3       29.50R
WATERTOWN      CLOUDY    30  29  96 NW5       29.47R WCI  25
BROOKINGS      CLOUDY    31  29  92 NW8       29.47R WCI  23
SISSETON         N/A     34  34 100 CALM      29.49R
$$

SDZ017-020-022-023-036>040-048>070-220200-
SOUTHEAST SOUTH DAKOTA

CITY           SKY/WX    TMP DP  RH WIND       PRES   REMARKS
SIOUX FALLS    CLOUDY    32  29  88 NW12      29.50R WCI  23
HURON          CLOUDY    31  29  92 NW5       29.51R WCI  26
CHAMBERLAIN    CLEAR     31  30  98 CALM      29.52R
MITCHELL       CLOUDY    33  30  88 NW10      29.52R WCI  25
YANKTON        CLEAR     30  27  86 W3        29.52R
$$

ABBREVIATIONS USED IN REMARKS
   TC - TEMPERATURE IN CELSIUS
  WCI - WIND CHILL INDEX
   HX - HEAT INDEX
  VSB - VISIBILITY





USA.gov is the U.S. government's official web portal to all federal, state and local government web resources and services.